www.pogodaiklimat.ru
ПОГОДА в Раутаваара Яла-Луоста
Время
(UTC), дата
01 12.02
02 12.02
03 12.02
04 12.02
05 12.02
06 12.02
07 12.02
08 12.02
09 12.02
10 12.02
11 12.02
12 12.02
13 12.02
14 12.02
15 12.02
16 12.02
17 12.02
18 12.02
19 12.02
20 12.02
21 12.02
22 12.02
23 12.02
00 13.02
01 13.02
02 13.02
03 13.02
04 13.02
05 13.02
06 13.02
07 13.02
08 13.02
09 13.02
10 13.02
11 13.02
12 13.02
13 13.02
14 13.02
15 13.02
16 13.02
17 13.02
18 13.02
19 13.02
20 13.02
21 13.02
22 13.02
23 13.02
00 14.02
01 14.02
02 14.02
03 14.02
04 14.02
05 14.02
06 14.02
07 14.02
08 14.02
09 14.02
10 14.02
11 14.02
12 14.02
13 14.02
14 14.02
15 14.02
16 14.02
17 14.02
18 14.02
19 14.02
20 14.02
21 14.02
22 14.02
23 14.02
00 15.02
01 15.02
02 15.02
03 15.02
04 15.02
05 15.02
06 15.02
07 15.02
08 15.02
09 15.02
10 15.02
11 15.02
12 15.02
13 15.02
14 15.02
15 15.02
16 15.02
17 15.02
18 15.02
19 15.02
20 15.02
21 15.02
22 15.02
23 15.02
00 16.02
01 16.02
02 16.02
03 16.02
04 16.02
05 16.02
06 16.02
07 16.02
08 16.02
09 16.02
10 16.02
11 16.02
12 16.02
13 16.02
14 16.02
15 16.02
16 16.02
17 16.02
18 16.02
19 16.02
20 16.02
21 16.02
22 16.02
23 16.02
00 17.02
01 17.02
02 17.02
03 17.02
04 17.02
05 17.02
06 17.02
07 17.02
08 17.02
09 17.02
10 17.02
11 17.02
12 17.02
13 17.02
14 17.02
15 17.02
16 17.02
17 17.02
18 17.02
19 17.02
20 17.02
21 17.02
22 17.02
23 17.02
00 18.02
01 18.02
02 18.02
03 18.02
04 18.02
05 18.02
06 18.02
07 18.02
08 18.02
09 18.02
10 18.02
11 18.02
12 18.02
13 18.02
14 18.02
15 18.02
16 18.02
17 18.02
18 18.02
19 18.02
20 18.02
21 18.02
22 18.02
23 18.02
Ветер
(напр.,м/с)
Видим. Явления Облачность Т
(С)
Тd
(С)
f
(%)
Тe
(С)
Тes
(С)
Комфортность P
(гПа)
Po
(гПа)
Тmin
(С)
Tmax
(С)
R
(мм)
R24
(мм)
S
(см)
Ю 3-5
{6}
3700 м ливневой дождь 10/10 180 м
[]
+0.1 -0.4 96 -5 -5 976.8 956.8
Ю 3 29 км слаб. морось 10/10 210 м
[]
+0.3 -0.3 96 -5 -5 977.3 957.3 0.1
Ю 3-5
{8}
27 км в посл. час снег {ливн. осадки, дождь} 10/10 240 м
[]
+0.3 -0.5 94 -4 -4 977.8 957.8
Ю 4-8
{8}
40 км 10/10 960 м
[]
+0.3 -0.7 93 -5 -5 978.4 958.4
Ю 4-7
{8}
30 км 10/10 960 м
[]
+0.3 -0.8 92 -5 -5 979.0 959.0
Ю 4-6
{8}
45 км {ливн. осадки, дождь} 10/10 1000 м
[]
+0.3 -0.9 92 -5 -5 979.4 959.3 -0.2 +1.0 <0.5
Ю 3-5
{7}
45 км 10/10 270 м
[]
+0.4 -0.7 92 -4 -4 979.9 959.8
Ю 3-6
{7}
30 км 10/10 300 м
[]
+0.7 -0.5 92 -4 -4 980.4 960.4
Ю 3-6
{7}
4900 м ливневой дождь {снег} 10/10 210 м
[]
+0.6 -0.1 95 -4 -4 981.1 961.0 0.1
Ю 3-5
{6}
40 км в посл. час снег 10/10 300 м
[]
+0.8 +0.1 95 -4 -4 981.5 961.5 0.4
Ю 3-5
{7}
40 км 10/10 360 м
[]
+0.9 +0.1 94 -4 -4 981.9 961.9
Ю 4-6
{6}
35 км туман местами {ливн. осадки, снег} 10/10 570 м
[]
+1.0 -0.1 92 -4 -4 982.5 962.4
Ю 3 50 км ливневой дождь 10/10 450 м
[]
+1.1 -0.2 91 -3 -3 983.1 963.0
Ю 3-6
{6}
50 км 10/10 1080 м
[]
+1.1 -0.4 90 -3 -3 983.5 963.4
Ю 3-6
{7}
50 км ливневой дождь {морось} 9/9 300 м
[]
+0.7 -0.4 92 -4 -4 984.2 964.1
Ю 3-6
{6}
9000 м ливневой дождь 9/9 330 м
[]
+0.7 -0.4 92 -4 -4 984.7 964.6
Ю 3 8000 м ливневой дождь 9/9 330 м
[]
+0.4 -0.4 94 -4 -4 985.3 965.2
Ю 3-6
{6}
45 км в посл. час переохл. осадки (гололёд) 10/10 800 м
[]
+0.4 -0.5 94 -4 -4 985.8 965.6 +0.2 +1.1 0.1
Ю 3-5
{6}
6000 м слаб. дождь 9/9 960 м
[]
+0.4 -0.3 95 -4 -4 986.2 966.0
Ю 3 50 км в посл. час дождь 10/10 180 м
[]
+0.5 -0.1 96 -4 -4 986.6 966.4
Ю 3-5
{6}
22 км слаб. морось {дождь} 10/10 210 м
[]
+0.7 +0.1 96 -4 -4 987.0 966.8
Ю 3-6
{6}
45 км в посл. час морось 10/10 180 м
[]
+0.7 +0.2 96 -4 -4 987.5 967.3
Ю 4 50 км 10/10 210 м
[]
+0.8 0.0 94 -5 -5 987.9 967.7
Ю 3-6
{7}
40 км {ливн. осадки, дождь} 10/10 240 м
[]
+0.9 0.0 94 -4 -4 988.3 968.2
Ю 4-7
{7}
30 км 9/9 300 м
[]
+0.8 -0.2 93 -5 -5 988.6 968.4
Ю 2-4
{6}
30 км 9/9 1500 м
[]
+0.6 -0.5 92 -3 -3 989.1 968.9
Ю 2-4
{5}
40 км 10/10 1260 м
[]
+0.5 -0.9 90 -3 -3 989.4 969.2
Ю 3-7
{7}
35 км 10/10 1140 м
[]
+0.6 -0.7 91 -4 -4 990.0 969.8
Ю 2-5
{6}
35 км 10/10 300 м
[]
+0.6 -0.6 92 -3 -3 990.8 970.5
Ю 2-5
{5}
30 км 10/10 300 м
[]
+0.6 -0.6 92 -3 -3 991.2 971.0 +0.3 +0.9 <0.5
Ю 3 30 км в посл. час дождь 10/10 270 м
[]
+0.6 -0.5 92 -4 -4 991.6 971.3
Ю 3-6
{6}
35 км 10/10 270 м
[]
+0.8 -0.7 90 -4 -4 992.0 971.8
Ю 3-6
{6}
40 км {ливн. осадки, снег} 9/9 1260 м
[]
+1.2 -0.9 86 -3 -3 992.4 972.1
Ю 2 13 км слаб. дождь 10/10 300 м
[]
+0.9 -0.4 91 -3 -3 992.8 972.5
Ю 2 7000 м слаб. дождь 10/10 270 м
[]
+0.8 -0.1 94 -3 -3 993.3 973.0 0.1
Ю 2-4
{4}
45 км в посл. час дождь со снегом {ливн. осадки} 10/10 360 м
[]
+1.0 -0.2 92 -3 -3 993.9 973.6
Ю 1 3800 м дождь со снегом 10/10 270 м
[]
+0.6 0.0 96 -2 -2 994.4 974.1 0.1
ЮВ 1-2
{2}
50 км в посл. час снег 10/10 330 м
[]
+0.6 +0.1 96 -2 -2 994.8 974.5 0.1
Ю 2-2
{3}
7000 м туман местами {ливн. осадки, снег} 9/9 1500 м
[]
+0.1 -0.3 97 -4 -4 995.3 974.9
штиль 0 2900 м слаб. ливневой дождь 10/10 330 м
[]
+0.2 -0.3 96 -1 -1 995.9 975.5
штиль 0
{2}
4800 м слаб. дождь 10/10 210 м
[]
+0.2 -0.1 98 -1 -1 996.3 975.9
штиль 0-1
{2}
4200 м дождь {ливн. осадки, снег} 10/10 330 м
[]
+0.2 -0.1 98 -1 -1 996.7 976.3 0.0 +1.2
штиль 0 3500 м дождь со снегом 10/10 210 м
[]
+0.1 -0.1 99 -1 -1 997.0 976.6 0.3
ЮВ 1-2
{2}
10 км морось 10/10 1020 м
[]
+0.1 -0.1 99 -2 -2 997.5 977.1
штиль 0
{3}
6000 м слаб. дождь {морось} 10/10 420 м
[]
0.0 -0.2 99 -1 -1 998.2 977.7 0.1
штиль 0
{2}
1800 м сильн. дождь 10/10 420 м
[]
0.0 -0.2 99 -1 -1 998.7 978.3 0.3
штиль 0 2300 м дождь 10/10 270 м
[]
-0.1 -0.2 99 -2 -2 999.3 978.8 0.1
штиль 0 2900 м переохл. дождь (гололёд) {морось} 10/10 150 м
[]
-0.1 -0.2 99 -2 -2 999.7 979.3 0.6
штиль 0 6000 м слаб. дождь 10/10 90 м
[]
-0.1 -0.2 99 -2 -2 1000.3 979.8 0.1
З 1-2
{2}
8000 м морось 10/10 150 м
[]
-0.1 -0.3 99 -2 -2 1001.0 980.5 0.1
З 1-2
{4}
7000 м слаб. дождь {морось} 10/10 150 м
[]
-0.8 -1.3 96 -3 -3 1002.0 981.4
СЗ 1-3
{3}
2600 м слаб. переохл. дождь (гололёд) 10/10 210 м
[]
-1.2 -1.7 96 -4 -4 1002.7 982.1 0.1
СЗ 1-3
{4}
50 км слаб. переохл. морось (гололёд) 10/10 270 м
[]
-2.0 -2.8 94 -4 -4 1003.5 982.8
З 1-3
{3}
50 км в посл. час ливневой дождь {морось} 10/10 330 м
[]
-2.2 -3.1 94 -5 -5 1004.4 983.7 -2.2 +0.2 <0.5
З 1-3
{3}
50 км 10/10 270 м
[]
-2.5 -3.4 94 -5 -5 1005.3 984.5
З 1-3
{3}
30 км слаб. переохл. морось (гололёд) 10/10 330 м
[]
-2.5 -3.5 93 -5 -5 1006.1 985.3
З 1-2
{3}
8000 м сильн. морось {туман} 9/9 330 м
[]
-2.3 -3.4 92 -5 -5 1006.9 986.1
З 2-4
{4}
25 км осадки 10/10 360 м
[]
-2.4 -3.7 91 -6 -6 1007.7 986.8
СЗ 2-4
{5}
40 км слаб. ливневой снег 10/10 450 м
[]
-2.5 -4.2 88 -7 -7 1008.3 987.5
З 2-4
{4}
23 км {ливн. осадки, снег} 10/10 400 м
[]
-2.6 -4.1 89 -7 -7 1009.5 988.6
З 1-4
{4}
40 км 10/10 300 м
[]
-2.9 -4.5 89 -5 -5 1010.3 989.4
З 2-6
{6}
50 км 10/10 480 м
[]
-3.0 -4.9 87 -7 -7 1011.2 990.2
З 1-3
{3}
50 км 10/10 480 м
[]
-3.3 -5.1 87 -6 -6 1012.1 991.1
ЮЗ 2-3
{5}
50 км 9/9 450 м
[]
-3.7 -5.4 88 -8 -8 1012.4 991.4
ЮЗ 1-3
{4}
50 км 10/10 450 м
[]
-3.8 -5.1 91 -6 -6 1013.2 992.1
Ю 2-2
{3}
50 км 1/1 300 м
[]
-5.5 -6.1 96 -10 -10 1013.8 992.7 -5.5 -2.2
Ю 2-2
{2}
50 км ясно -7.2 -7.7 96 -12 -12 1014.4 993.0
Ю 1-2
{2}
50 км ясно -9.5 -10.1 95 -12 -12 1014.6 993.1
Ю 1-2
{2}
50 км ясно -9.3 -9.9 95 -12 -12 1015.0 993.5
Ю 1-2
{2}
16 км ясно -10.3 -11.1 94 -13 -13 1015.4 993.8
Ю 2-3
{3}
50 км ясно -9.2 -9.8 95 -14 -14 1015.2 993.7
Ю 2-2
{3}
50 км ясно -9.7 -10.3 95 -14 -14 1015.7 994.1
Ю 2-3
{3}
45 км ясно -8.3 -9.0 95 -13 -13 1015.3 993.8
Ю 2-2
{3}
45 км 4/1 50 м
[]
-8.0 -8.7 95 -13 -13 1015.3 993.9
Ю 2-3
{3}
40 км 10/10 150 м
[]
-6.7 -7.4 95 -11 -11 1015.0 993.7
Ю 2-3
{3}
40 км 10/10 120 м
[]
-6.4 -7.1 95 -11 -11 1014.4 993.2
Ю 2-3
{3}
50 км 1/1 100 м
[]
-7.0 -7.8 94 -12 -12 1014.4 993.0
Ю 2-4
{4}
45 км 10/10 100 м
[]
-6.3 -7.0 95 -11 -11 1013.8 992.6 -10.6 -5.6 <0.5
Ю 2-3
{4}
30 км 10/10 50 м
[]
-5.3 -5.9 96 -10 -10 1013.3 992.1
Ю 2-3
{3}
45 км 9/9 1380 м
[]
-4.5 -5.3 94 -9 -9 1012.3 991.3
Ю 3-4
{6}
40 км слаб. снег {туман} 10/10 210 м
[]
-3.7 -4.4 95 -9 -9 1011.7 990.7
Ю 3 14 км слаб. ливневой дождь 10/10 210 м
[]
-3.1 -3.8 95 -9 -9 1011.5 990.5
Ю 3-5
{5}
11 км снежные зёрна 9/9 210 м
[]
-2.8 -3.5 95 -8 -8 1010.4 989.5
Ю 3-5
{6}
1600 м слаб. ливневой снег 9/9 180 м
[]
-1.9 -2.6 95 -7 -7 1009.1 988.3
Ю 4 800 м дождь со снегом 10/10 240 м
[]
-1.6 -2.2 96 -8 -8 1007.8 987.0 0.6
Ю 4-7
{7}
1100 м слаб. дождь со снегом 10/10 240 м
[]
-1.0 -1.6 96 -7 -7 1006.6 985.9 0.7
Ю 4-7
{9}
1000 м сильн. снег {ливн. осадки} 10/10 240 м
[]
-0.5 -1.1 96 -6 -6 1005.8 985.2 0.6
Ю 4-6
{9}
2300 м слаб. дождь со снегом 10/10 240 м
[]
-0.3 -0.9 96 -6 -6 1005.3 984.7 0.5
Ю 4 1700 м слаб. ледяной дождь 10/10 240 м
[]
-0.2 -0.7 96 -6 -6 1004.6 984.0 0.2
Ю 4-6
{8}
2000 м переохл. дождь (гололёд) {снег} 10/10 210 м
[]
-0.2 -0.7 96 -6 -6 1003.9 983.3 -6.3 -0.1 0.4
Ю 4-7
{8}
2400 м слаб. дождь 10/10 150 м
[]
-0.2 -0.6 97 -6 -6 1003.4 982.9 0.3
Ю 3-5
{6}
2000 м дождь 10/10 150 м
[]
-0.2 -0.5 98 -5 -5 1003.3 982.8 0.3
Ю 3-5
{6}
3000 м слаб. дождь {морось} 10/10 120 м
[]
-0.2 -0.4 99 -5 -5 1003.2 982.7 0.4
Ю 3 2000 м слаб. ледяной дождь 10/10 120 м
[]
-0.2 -0.4 99 -5 -5 1003.4 982.8 0.6
ЮЗ 3-5
{5}
14 км слаб. морось 10/10 120 м
[]
-0.1 -0.3 99 -5 -5 1003.8 983.2 0.2
ЮЗ 3-6
{6}
4200 м ливневой дождь {снег} 9/9 150 м
[]
0.0 -0.3 98 -5 -5 1004.3 983.8 0.1
ЮЗ 2 10 км в посл. час зёрна 10/10 240 м
[]
-0.1 -0.4 98 -4 -4 1004.4 983.8 0.1
ЮЗ 2 7000 м дымка 10/10 150 м
[]
0.0 -0.3 98 -4 -4 1004.0 983.5
Ю 3-5
{5}
19 км {ливн. осадки} 10/10 180 м
[]
-0.1 -0.4 98 -5 -5 1003.9 983.3
Ю 3-4
{6}
8000 м дымка 10/10 120 м
[]
-0.1 -0.3 99 -5 -5 1004.1 983.5
Ю 4-6
{7}
22 км 9/9 150 м
[]
-0.2 -0.4 99 -6 -6 1003.8 983.2
Ю 3-6
{8}
50 км {ливн. осадки} 9/9 240 м
[]
0.0 -0.4 97 -5 -5 1003.1 982.5 -0.3 +0.1 1
Ю 3-4
{6}
50 км 9/9 330 м
[]
+0.1 -0.3 97 -5 -5 1002.1 981.6
Ю 3-5
{6}
40 км 9/9 240 м
[]
+0.4 -0.2 96 -4 -4 1000.7 980.2
Ю 4-8
{8}
40 км 9/9 210 м
[]
+0.6 -0.2 94 -5 -5 999.7 979.3
Ю 5-9
{9}
22 км 9/9 180 м
[]
+0.7 +0.1 96 -5 -5 998.6 978.2
Ю 4-9
{9}
4500 м дождь со снегом 10/10 210 м
[]
+0.8 +0.2 96 -5 -5 996.5 976.2 0.3
Ю 6-10
{10}
4000 м дождь {туман} 10/10 240 м
[]
+0.9 +0.3 96 -6 -6 995.0 974.6 0.2
Ю 5 2500 м слаб. дождь со снегом 10/10 210 м
[]
+0.6 +0.1 96 -6 -6 993.9 973.5 0.9
Ю 6-11
{12}
23 км слаб. морось 10/10 300 м
[]
+0.6 -0.2 94 -6 -6 991.9 971.6 0.4
Ю 6-11
{14}
50 км {снег, дождь} 9/9 150 м
[]
+0.6 0.0 96 -6 -6 990.2 970.0
Ю 7-11
{13}
8000 м слаб. дождь 9/9 150 м
[]
+0.6 +0.1 96 -7 -7 988.5 968.3
Ю 7-11
{12}
5000 м слаб. ливневой дождь 9/9 150 м
[]
+0.6 0.0 96 -7 -7 985.4 965.3 0.5
Ю 7-12
{14}
7000 м в посл. час снег {ливн. осадки} 9/9 240 м
[]
+1.0 +0.3 95 -6 -6 983.9 963.9 0.0 +1.0 0.2
Ю 7-12
{13}
2600 м морось 9/9 150 м
[]
+1.2 +0.7 96 -6 -6 981.9 961.9 0.1
Ю 7-14
{14}
6000 м в посл. час морось 9/9 240 м
[]
+1.7 +1.0 95 -5 -5 980.3 960.4 0.2
Ю 6-12
{13}
4600 м слаб. морось 9/9 180 м
[]
+2.0 +1.5 96 -4 -4 978.9 959.0
Ю 7-15
{15}
5000 м в посл. час морось 9/9 120 м
[]
+2.5 +2.2 98 -4 -4 978.0 958.2 0.1
Ю 7-11
{13}
5000 м дымка 9/9 120 м
[]
+2.9 +2.6 98 -4 -4 976.3 956.5 0.1
Ю 6-11
{12}
8000 м ливневой дождь 9/9 150 м
[]
+3.3 +3.0 98 -3 -3 975.2 955.5 0.2
Ю 6-12
{14}
7000 м слаб. ливневой дождь 9/9 150 м
[]
+3.7 +3.3 97 -2 -2 974.0 954.4 0.4
Ю 5 50 км 9/9 630 м
[]
+3.8 +2.9 94 -1 -1 973.4 953.8 0.1
ЮЗ 5-9
{10}
50 км в посл. час снег {ливн. осадки, морось} 6/4 1500 м
[]
+3.7 +2.3 91 -2 -2 973.1 953.5
Ю 6-12
{12}
45 км в посл. час морось 9/1 600 м
[]
+3.6 +2.0 89 -2 -2 972.7 953.0 0.1
ЮЗ 5-10
{12}
50 км в посл. час морось 9/9 800 м
[]
+3.2 +1.6 89 -2 -2 972.8 953.1
ЮЗ 5-11
{11}
50 км в посл. час снег {ливн. осадки, морось} 9/9 800 м
[]
+3.2 +1.1 86 -2 -2 973.0 953.3 +0.9 +4.1 <0.5
ЮЗ 4-8
{11}
50 км 9/9 750 м
[]
+3.2 +0.7 84 -1 -1 973.1 953.4
ЮЗ 3-6
{8}
35 км 9/9 720 м
[]
+3.1 +0.2 81 -1 -1 973.6 953.9
ЮЗ 5-8
{11}
35 км 6/6 960 м
[]
+3.0 -0.4 78 -2 -2 973.8 954.1
ЮЗ 4-8
{9}
30 км 6/4 600 м
[]
+3.0 -0.6 77 -2 -1 974.2 954.5
ЮЗ 5-11
{11}
35 км 6/4 800 м
[]
+3.1 -1.0 74 -2 -2 974.9 955.2
ЮЗ 5-9
{9}
35 км 9/9 840 м
[]
+2.9 -1.0 75 -2 -2 975.8 956.1
ЮЗ 5-8
{10}
29 км 9/9 840 м
[]
+2.8 -0.8 77 -2 -2 976.4 956.7
ЮЗ 4-7
{9}
30 км 9/9 870 м
[]
+2.7 -0.5 79 -2 -2 977.2 957.3
ЮЗ 4-7
{9}
29 км 9/9 840 м
[]
+2.5 -0.4 81 -2 -2 977.8 957.9
ЮЗ 5-10
{10}
30 км 9/9 630 м
[]
+2.5 -0.5 81 -3 -3 978.5 958.6
ЮЗ 5-8
{10}
9000 м слаб. ливневой дождь 9/9 450 м
[]
+2.1 +0.8 91 -4 -4 978.9 959.0
ЮЗ 4-7
{9}
19 км в посл. час дождь со снегом {ливн. осадки} 9/9 420 м
[]
+1.9 +1.2 95 -3 -3 979.2 959.3 +1.7 +3.4 0.2
ЮЗ 4-7
{10}
18 км в посл. час морось 9/9 500 м
[]
+2.4 +1.3 92 -3 -3 979.5 959.6
Ю 4-8
{8}
23 км слаб. морось 9/9 450 м
[]
+2.4 +1.3 92 -3 -3 979.5 959.6 0.1
ЮЗ 4-7
{10}
9000 м ливневой дождь {морось} 9/9 480 м
[]
+2.4 +1.4 93 -3 -3 979.5 959.6 0.1
ЮЗ 5-10
{10}
30 км слаб. ливневой дождь 9/9 300 м
[]
+3.0 +1.0 87 -2 -2 979.4 959.5 0.1
Ю 6-10
{10}
24 км 10/10 500 м
[]
+2.8 +0.9 87 -3 -3 979.3 959.5
Ю 5-9
{9}
27 км {ливн. осадки, морось} 10/10 540 м
[]
+2.9 +0.7 85 -2 -2 979.2 959.3
Ю 5-10
{11}
7000 м слаб. дождь 10/10 330 м
[]
+2.1 +1.3 94 -4 -4 978.6 958.7 0.2
Ю 6 8000 м слаб. дождь 10/10 180 м
[]
+1.7 +1.3 97 -5 -5 978.0 958.1 1
Ю 5-9
{10}
6000 м слаб. морось {дождь} 10/10 270 м
[]
+2.2 +1.7 96 -4 -4 977.5 957.7 0.1
Ю 5-10
{10}
8000 м слаб. ливневой дождь 10/10 270 м
[]
+2.3 +1.6 95 -3 -3 976.9 957.0
ЮЗ 6-9
{10}
7000 м слаб. дождь 10/10 240 м
[]
+2.0 +1.5 96 -4 -4 976.6 956.7 1
ЮЗ 5-9
{9}
6000 м слаб. дождь 10/10 180 м
[]
+2.1 +1.6 96 -4 -4 976.6 956.8 +1.6 +3.1 0.9 <0.5
ЮЗ 4 4200 м слаб. морось 10/10 180 м
[]
+2.3 +1.9 97 -3 -3 977.3 957.5 0.2
ЮЗ 5 4700 м в посл. час морось 10/10 240 м
[]
+2.5 +1.9 96 -3 -3 978.6 958.8 0.1
ЮЗ 5-10
{10}
22 км {дождь, морось} 10/10 300 м
[]
+2.6 +1.6 93 -3 -3 980.0 960.2
ЮЗ 4-7
{11}
45 км 10/10 300 м
[]
+2.6 +1.7 94 -2 -2 981.1 961.2
ЮЗ 5-9
{9}
45 км в посл. час дождь 10/10 480 м
[]
+2.5 +1.3 92 -3 -3 982.2 962.3 0.3
ЮЗ 4-7
{11}
50 км {ливн. осадки, дождь} 10/10 600 м
[]
+2.6 +0.7 87 -2 -2 982.9 963.0
ЮЗ 4-8
{8}
50 км 9/9 800 м
[]
+3.1 +0.5 83 -2 -2 983.3 963.4
ЮЗ 4-7
{7}
45 км 9/9 1000 м
[]
+3.2 +0.2 81 -1 -1 983.7 963.8
ЮЗ 4-8
{8}
50 км 1/1 1000 м
[]
+3.1 0.0 80 -2 -2 984.1 964.2
ЮЗ 4-7
{9}
50 км 1/1 600 м
[]
+2.8 -0.2 81 -2 -2 984.5 964.5
ЮЗ 4-8
{9}
50 км 1/1 600 м
[]
+2.8 -0.1 81 -2 -2 984.9 964.9
ЮЗ 4-6
{8}
50 км ясно +2.0 -0.2 85 -3 -3 985.3 965.3 +1.9 +3.5
ЮЗ 4-8
{8}
50 км ясно +1.5 -0.6 86 -4 -4 985.7 965.7
Ю 3-6
{8}
45 км 1/1 600 м
[]
+0.7 -0.9 89 -4 -4 986.1 965.9
Ю 3-5
{6}
50 км 9/9 800 м
[]
+1.3 -0.4 88 -3 -3 986.2 966.1
Ю 3-5
{5}
35 км 4/4 600 м
[]
+0.7 -0.5 92 -4 -4 986.1 965.9
Ю 3-5
{5}
24 км 9/9 700 м
[]
+1.5 +0.4 92 -3 -3 986.0 965.9
Местоположение метеостанции Раутаваара Яла-Луоста (Финляндия): широта 63.38 долгота 28.66 высота над уровнем моря 166 м.
В архиве по умолчанию представлена погода в Раутаваара Яла-Луоста за последнюю неделю. Архивные данные за месяц целиком и за предыдущие месяцы, начиная с января 2011 года, Вы можете получить, выбрав интересующий диапазон дат из раскрывающегося списка и нажав кнопку "Найти!".
*Определитесь, кто Вы:
Внимание! Время в таблицах - всемирное. Для получения местного времени необходимо прибавить поправку, которая равна 1 ч.
Смотрите также архив погоды в соседних городах и на ближайших метеорологических станциях:
Партнеры нашего сайта:      
Пояснения к столбцам:
  • Ветер - указаны скорость ветра в м/с - средняя за 10 мин, порывы в срок и между сроками (в фигурных скобках) и направление, откуда дует ветер: С - северный,
  • СВ - северо-восточный, В - восточный, ЮВ - юго-восточный, Ю - южный, ЮЗ - юго-западный, З - западный, СЗ - северо-западный.
  • Видимость - горизонтальная дальность видимости в метрах или километрах. При видимости от 1 до 10 км при отсутствии осадков обычно наблюдается дымка, при ухудшении видимости до 1 км и менее - туман. В сухую погоду видимость может ухудшаться дымом, пылью или мглою.
  • Явления - указаны атмосферные явления, наблюдавшиеся в срок или в последний час перед сроком; фигурными скобками обозначены явления, наблюдавшиеся между сроками (за 1-3 часа до срока); квадратными скобками обозначены град или гололедные отложения с указанием их диаметра в мм.
  • Облачность - указаны через наклонную черту общая и нижняя облачность в баллах и высота нижней границы облаков в метрах; квадратными скобками обозначены формы облаков: Ci - перистые, Cs - перисто-слоистые, Cc - перисто-кучевые, Ac - высококучевые, As - высокослоистые, Sc - слоисто-кучевые, Ns - слоисто-дождевые, Cu - кучевые, Cb - кучево-дождевые. Подробнее классификацию облаков см. в Атласе облаков (PDF).
  • T - Температура воздуха - температура, измеренная на высоте 2 м над землей.
  • Td - Температура точки росы - температура, при понижении до которой содержащийся в воздухе водяной пар достигнет насыщения.
  • f - Относительная влажность воздуха - влажноcть воздуха, измеренная на высоте 2 м над землей.
  • Te - Эффективная температура - температура, которую ощущает одетый по сезону человек в тени. Характеристика душности погоды. При расчете учитывается влияние влажности воздуха и скорости ветра на теплоощущения человека.
  • Tes - Эффективная температура на солнце - температура, которую ощущает человек, с поправкой на солнечный нагрев. Характеристика знойности погоды. Зависит от высоты солнца над горизонтом, облачности и скорости ветра. Ночью, в пасмурную погоду, а также при ветре 12 м/с и более поправка равна нулю.
  • P - Атмосферное давление - приведенное к уровню моря атмосферное давление.
  • Po - Атмосферное давление - измеренное на уровне метеостанции атмосферное давление.
  • Tmin - Минимальная температура - минимум температуры воздуха на высоте 2 м над землей.
  • Tmax - Максимальная температура - максимум температуры воздуха на высоте 2 м над землей.
  • R - Количество осадков - Количество выпавших осадков за период времени, мм. При наведении курсора мыши на число - период времени, за который выпало указанное количество осадков.
  • R24 - Количество осадков - Количество выпавших осадков за 24 часа, мм.
  • S - Снежный покров - Высота снежного покрова, см. При наведении курсора мыши на число - состояние снежного покрова и степень покрытия местности в баллах.